www.pogodaiklimat.ru
ПОГОДА в Тонгулахе
Время
(UTC), дата
21 13.10
00 14.10
03 14.10
06 14.10
09 14.10
12 14.10
15 14.10
18 14.10
21 14.10
00 15.10
03 15.10
06 15.10
09 15.10
12 15.10
15 15.10
18 15.10
21 15.10
00 16.10
03 16.10
06 16.10
09 16.10
12 16.10
15 16.10
18 16.10
21 16.10
00 17.10
03 17.10
06 17.10
09 17.10
12 17.10
15 17.10
18 17.10
21 17.10
00 18.10
03 18.10
06 18.10
09 18.10
12 18.10
15 18.10
18 18.10
21 18.10
00 19.10
03 19.10
06 19.10
09 19.10
12 19.10
15 19.10
18 19.10
21 19.10
00 20.10
03 20.10
06 20.10
09 20.10
12 20.10
15 20.10
18 20.10
Ветер
(напр.,м/с)
Видим. Явления Облачность Т
(С)
Тd
(С)
f
(%)
Тe
(С)
Тes
(С)
Комфортность P
(гПа)
Po
(гПа)
Тmin
(С)
Tmax
(С)
R
(мм)
R24
(мм)
S
(см)
штиль 0 20 км 10/10
[Sc]
-5.2 -8.9 75 -6 -6 холодно 1018.3 990.2
З 1 50 км 8/0
[Ac trans]
-5.0 -9.5 71 -7 -7 холодно 1016.5 991.1 -8.3 2
СЗ 2 50 км 9/0
[Ac trans Ci fib]
-0.8 -7.3 61 -4 -3 прохладно 1013.8 988.9
СЗ 3 50 км 10/0
[Cs]
-0.2 -9.3 50 -4 -4 прохладно 1012.8 987.9
СЗ 1 50 км 10/0
[Ac trans Cs]
-1.2 -8.9 56 -3 -3 прохладно 1012.2 987.3
штиль 0 20 км 8/0
[Ci fib]
-2.8 -8.3 66 -4 -4 прохладно 1011.8 986.8 +0.1
штиль 0 20 км 10/0
[Ac As]
-2.8 -5.1 84 -4 -4 прохладно 1011.8 986.8
штиль 0 20 км {снег} 10/0
[Ac As]
-3.2 -4.9 88 -4 -4 прохладно 1011.6 986.5
З 2 20 км {снег} 9/4 600 м
[Cu med, cong Ac trans]
-3.4 -4.8 90 -8 -8 очень
холодно
1013.5 988.3
З 3 20 км слаб. ливневой снег 10/10 600 м
[Cb cap]
-2.6 -4.2 89 -8 -8 очень
холодно
1014.7 989.6 -3.5 2 5
З 4 50 км {ливн. осадки} 10/10 600 м
[Cb cap]
-2.2 -5.1 80 -8 -8 очень
холодно
1015.9 990.8
З 3 50 км {ливн. осадки} 10/10 600 м
[Cb cap]
-2.0 -5.5 77 -7 -7 холодно 1016.8 991.7
СЗ 2 50 км 10/10 1000 м
[Sc]
-2.2 -5.8 76 -6 -6 холодно 1017.7 992.5
штиль 0 20 км 10/10 1000 м
[Sc]
-2.6 -5.6 80 -4 -4 прохладно 1018.4 993.2 -1.0 0.4
штиль 0 20 км 10/0
[Ac As]
-3.0 -6.8 75 -4 -4 прохладно 1018.4 993.1
штиль 0 20 км 10/0
[Ac As]
-3.3 -6.8 77 -4 -4 прохладно 1018.0 992.7
штиль 0 20 км 10/0
[As op]
-3.0 -6.4 77 -4 -4 прохладно 1018.2 992.9
штиль 0 50 км 10/0
[As op]
-2.8 -5.8 80 -4 -4 прохладно 1017.8 992.8 -3.4 5
ЮВ 2 50 км 10/0
[As op]
-0.2 -4.5 73 -4 -3 прохладно 1017.0 992.1
ЮВ 2 50 км 10/0
[As op]
+1.2 -4.3 67 -2 -2 по сезону 1015.1 990.4
штиль 0 50 км 10/0
[As op]
+1.2 -3.3 72 0 0 по сезону 1013.3 988.6
штиль 0 20 км 10/0
[As op]
+1.2 -2.6 76 0 0 по сезону 1012.5 987.8 +1.6
штиль 0 20 км ясно -2.2 -3.4 91 -3 -3 прохладно 1011.9 985.4
штиль 0 20 км ясно -3.8 -5.0 91 -5 -5 холодно 1011.5 986.4
штиль 0 20 км 8/0
[Ac trans]
-1.8 -2.7 94 -3 -3 прохладно 1012.9 987.7
штиль 0 50 км 8/8
[Sc]
+0.7 -0.4 92 -1 -1 по сезону 1011.9 987.2 -4.1 3
штиль 0 50 км 10/3 1000 м
[Cu hum Cs]
+4.8 +1.3 78 +4 +5 по сезону 1010.3 986.0
штиль 0 50 км 10/0
[Ac trans Cs]
+8.2 +0.4 58 +8 +9 тепло 1008.1 984.1
штиль 0 50 км 10/0
[Ac trans Cs]
+5.4 -0.4 66 +5 +5 тепло 1008.0 986.7
З 1 20 км ясно -7.5 -10.1 82 -10 -10 очень
холодно
1010.1 984.6 +8.6
СЗ 2 20 км 4/0
[Ac trans]
-1.8 -3.3 89 -6 -6 холодно 1010.7 985.8
СЗ 2 20 км 4/0
[Ac trans]
-3.4 -4.8 90 -8 -8 очень
холодно
1011.5 986.4
штиль 0 20 км 9/0
[Ac trans]
-4.4 -9.7 66 -5 -5 холодно 1012.1 986.9
штиль 0 50 км 10/0
[Ac trans Cs]
-3.6 -4.4 94 -5 -5 холодно 1011.5 986.4 -4.6 1
ЮЗ 2 50 км 8/6 600 м
[Cu med, cong Ac cast]
+2.4 +0.5 87 -1 -0 по сезону 1009.5 985.0
Ю 1 50 км 4/0
[Ac trans Ci sp]
+8.2 +1.6 63 +8 +9 тепло 1007.5 983.5
Ю 1 50 км ясно +4.4 -0.7 69 +3 +3 по сезону 1008.4 984.0
СЗ 1 20 км 4/0
[Ci sp]
-2.0 -3.8 87 -4 -4 прохладно 1009.8 984.8 +8.3
штиль 0 20 км 4/0
[Ac trans]
-4.2 -5.1 93 -5 -5 холодно 1010.4 985.2
штиль 0 20 км 3/0
[Ac trans]
-5.6 -6.3 95 -7 -7 холодно 1010.7 985.4
штиль 0 20 км 3/0
[Ci fib]
-5.4 -6.1 95 -6 -6 холодно 1009.9 984.6
штиль 0 50 км 6/0
[Cs]
-3.0 -4.0 93 -4 -4 прохладно 1008.8 983.7 -5.6 1
штиль 0 50 км 8/0
[Ac trans]
+2.2 -3.9 64 +2 +3 по сезону 1009.1 984.5
СЗ 2 50 км 8/0
[Ac trans]
+5.8 +0.1 67 +4 +4 по сезону 1012.0 987.6
штиль 0 50 км 3/0
[Ci fib]
+2.8 +0.7 86 +2 +2 по сезону 1014.0 989.3
штиль 0 20 км 3/0
[Ci fib]
-2.4 -4.4 86 -4 -4 прохладно 1016.1 991.0 +6.2
штиль 0 20 км 6/0
[Ci fib]
-3.2 -4.9 88 -4 -4 прохладно 1017.0 991.8
штиль 0 20 км 6/0
[Ci fib]
-4.8 -6.1 91 -6 -6 холодно 1017.6 992.3
штиль 0 20 км 3/0
[Ci fib]
-8.2 -9.2 92 -9 -9 очень
холодно
1018.3 992.5
штиль 0 50 км 8/0
[Ac trans]
-9.2 -10.3 92 -10 -10 очень
холодно
1018.6 992.7 -9.4 0
штиль 0 50 км 10/0
[Cs]
-1.0 -2.8 88 -2 -1 по сезону 1016.8 991.9
штиль 0 50 км 10/0
[Cs]
+2.4 -1.5 75 +2 +2 по сезону 1015.3 990.6
СЗ 1 50 км 6/0
[Ci sp]
+1.0 -1.9 81 -1 -1 по сезону 1014.6 989.9
СЗ 1 20 км 4/0
[Ci sp]
-0.5 -1.5 93 -3 -3 прохладно 1014.5 989.6 +2.7
штиль 0 20 км 3/0
[Ci fib]
-1.6 -3.0 90 -3 -3 прохладно 1013.7 988.6
штиль 0 20 км 6/0
[Ci fib]
-2.8 -3.8 93 -4 -4 прохладно 1013.3 988.2
Местоположение метеостанции Тонгулах (Якутия, Россия): широта 61.92 долгота 124.50 высота над уровнем моря 199 м.
В архиве по умолчанию представлена погода в Тонгулахе за последнюю неделю. Архивные данные за месяц целиком и за предыдущие месяцы, начиная с января 2011 года, Вы можете получить, выбрав интересующий диапазон дат из раскрывающегося списка и нажав кнопку "Найти!".
*Определитесь, кто Вы:
Внимание! Время в таблицах - всемирное. Для получения местного времени необходимо прибавить поправку, которая равна 9 ч.
Смотрите также архив погоды в соседних городах и на ближайших метеорологических станциях:
Партнеры нашего сайта:      
Пояснения к столбцам:
  • Ветер - указаны скорость ветра в м/с - средняя за 10 мин, порывы в срок и между сроками (в фигурных скобках) и направление, откуда дует ветер: С - северный,
  • СВ - северо-восточный, В - восточный, ЮВ - юго-восточный, Ю - южный, ЮЗ - юго-западный, З - западный, СЗ - северо-западный.
  • Видимость - горизонтальная дальность видимости в метрах или километрах. При видимости от 1 до 10 км при отсутствии осадков обычно наблюдается дымка, при ухудшении видимости до 1 км и менее - туман. В сухую погоду видимость может ухудшаться дымом, пылью или мглою.
  • Явления - указаны атмосферные явления, наблюдавшиеся в срок или в последний час перед сроком; фигурными скобками обозначены явления, наблюдавшиеся между сроками (за 1-3 часа до срока); квадратными скобками обозначены град или гололедные отложения с указанием их диаметра в мм.
  • Облачность - указаны через наклонную черту общая и нижняя облачность в баллах и высота нижней границы облаков в метрах; квадратными скобками обозначены формы облаков: Ci - перистые, Cs - перисто-слоистые, Cc - перисто-кучевые, Ac - высококучевые, As - высокослоистые, Sc - слоисто-кучевые, Ns - слоисто-дождевые, Cu - кучевые, Cb - кучево-дождевые. Подробнее классификацию облаков см. в Атласе облаков (PDF).
  • T - Температура воздуха - температура, измеренная на высоте 2 м над землей.
  • Td - Температура точки росы - температура, при понижении до которой содержащийся в воздухе водяной пар достигнет насыщения.
  • f - Относительная влажность воздуха - влажноcть воздуха, измеренная на высоте 2 м над землей.
  • Te - Эффективная температура - температура, которую ощущает одетый по сезону человек в тени. Характеристика душности погоды. При расчете учитывается влияние влажности воздуха и скорости ветра на теплоощущения человека.
  • Tes - Эффективная температура на солнце - температура, которую ощущает человек, с поправкой на солнечный нагрев. Характеристика знойности погоды. Зависит от высоты солнца над горизонтом, облачности и скорости ветра. Ночью, в пасмурную погоду, а также при ветре 12 м/с и более поправка равна нулю.
  • P - Атмосферное давление - приведенное к уровню моря атмосферное давление.
  • Po - Атмосферное давление - измеренное на уровне метеостанции атмосферное давление.
  • Tmin - Минимальная температура - минимум температуры воздуха на высоте 2 м над землей.
  • Tmax - Максимальная температура - максимум температуры воздуха на высоте 2 м над землей.
  • R - Количество осадков - Количество выпавших осадков за период времени, мм. При наведении курсора мыши на число - период времени, за который выпало указанное количество осадков.
  • R24 - Количество осадков - Количество выпавших осадков за 24 часа, мм.
  • S - Снежный покров - Высота снежного покрова, см. При наведении курсора мыши на число - состояние снежного покрова и степень покрытия местности в баллах.